Regional Weather Roundup
Issued by NWS Little Rock, AR

Home | Current Version | Previous Version | Text Only | Print | Product List | Glossary Off
Versions: 1 2 3 4 5 6 7 8 9 10 11 12 13 14 15 16 17 18 19 20 21 22 23 24 25 26 27 28 29 30 31 32 33 34 35 36 37 38 39 40 41 42 43 44 45 46 47 48 49 50

000
ASUS44 KLZK 300705
RWRLZK

WEATHER ROUNDUP FOR ARKANSAS
NATIONAL WEATHER SERVICE LITTLE ROCK AR
200 AM CDT THU JUL 30 2015

NOTE: "FAIR" INDICATES FEW OR NO CLOUDS BELOW 12,000 FEET WITH NO
SIGNIFICANT WEATHER AND/OR OBSTRUCTIONS TO VISIBILITY.

ARZ001-003-010-029-300800-
NORTHWEST ARKANSAS

CITY           SKY/WX    TMP DP  RH WIND       PRES   REMARKS
FAYETTEVILLE   CLEAR     77  73  87 NE5       30.14R
FORT SMITH     PTCLDY    82  74  76 E8        30.07R HX  88
HARRISON       CLEAR     74  72  93 CALM      30.16S
BENTONVILLE    CLEAR     79  68  69 E7        30.15S
ROGERS         CLEAR     77  71  82 E9        30.15F
SILOAM SPGS    CLEAR     77  66  69 E3        30.13S
HIGHFILL       CLEAR     78  72  81 E5        30.15R
$$

ARZ004-005-016-300800-
NORTH CENTRAL ARKANSAS

CITY           SKY/WX    TMP DP  RH WIND       PRES   REMARKS
BATESVILLE     PTCLDY    77  73  88 NW3       30.09R
FLIPPIN        CLEAR     79  70  73 NE3       30.11S
MTN HOME       PTCLDY    76  71  85 CALM      30.12F
$$

ARZ040-041-300800-
WEST CENTRAL ARKANSAS

CITY           SKY/WX    TMP DP  RH WIND       PRES   REMARKS
MENA           CLEAR     77  72  83 CALM      30.10S
MOUNT IDA      CLEAR     77  74  90 CALM      30.06R
$$

ARZ009-017-025-026-028-300800-
NORTHEAST ARKANSAS

CITY           SKY/WX    TMP DP  RH WIND       PRES   REMARKS
JONESBORO      CLEAR     80  74  81 N7        30.05F HX  85
NEWPORT        CLEAR     79  76  90 N7        30.06F
WALNUT RIDGE   CLEAR     79  72  78 N7        30.07S
BLYTHEVILLE    CLEAR     79  78  97 N7        30.04F
$$

ARZ022-023-033-042-044-300800-
CENTRAL ARKANSAS

CITY           SKY/WX    TMP DP  RH WIND       PRES   REMARKS
LITTLE ROCK    PTCLDY    83  75  77 NE7       30.05S HX  90
N LITTLE ROCK    N/A     82  77  85 NE7       30.05S HX  90
JACKSONVILLE   CLEAR     82  76  83 NE3       30.05F HX  89
SEARCY         CLEAR     81  76  84 N5        30.07F HX  87
HOT SPRINGS    PTCLDY    83  71  67 CALM      30.06S HX  87
RUSSELLVILLE   PTCLDY    84  73  69 NE5       30.07S HX  90
CLINTON        LGT RAIN  77  75  94 CALM      30.10F
$$

ARZ036-300800-
EAST ARKANSAS

CITY           SKY/WX    TMP DP  RH WIND       PRES   REMARKS
WEST MEMPHIS   CLEAR     79  76  90 CALM      30.02F
$$

ARZ050-053-066-070-073-300800-
SOUTHWEST ARKANSAS

CITY           SKY/WX    TMP DP  RH WIND       PRES   REMARKS
ARKADELPHIA    FAIR      80  78  94 CALM      30.04S HX  86
CAMDEN         CLEAR     79  75  89 CALM      30.03S
TEXARKANA      CLEAR     82  68  62 CALM      30.04S HX  85
EL DORADO      PTCLDY    78  74  87 NW5       30.03F
DE QUEEN       CLEAR     76  75  97 CALM      30.03R
$$

ARZ056-057-069-300800-
SOUTHEAST ARKANSAS

CITY           SKY/WX    TMP DP  RH WIND       PRES   REMARKS
PINE BLUFF     MOCLDY    82  78  88 NE3       30.03F HX  91
STUTTGART      CLEAR     82  73  74 NE6       30.05S HX  88
MONTICELLO     FAIR      81  79  94 CALM      30.03S HX  90

$$




USA.gov is the U.S. government's official web portal to all federal, state and local government web resources and services.